Location: Bydgoszcz
(53.1222°N, 17.9945°E)
Time: 00:09:47
(UTC+01:00)

ISS - Visible Passes

Search period start: 21 March 2019 00:00
Search period end: 31 March 2019 00:00
Orbit: 406 x 411 km, 51.6° (Epoch: 21 March)

Date Brightness Start Highest point End Pass type
(mag) Time Alt. Az. Time Alt. Az. Time Alt. Az.
22 Mar -1.9 19:39:17 10° SSW 19:40:46 17° SSE 19:40:46 17° SSE visible
23 Mar -1.7 18:49:18 10° S 18:50:52 13° SE 18:52:26 10° ESE visible
23 Mar -2.0 20:23:41 10° SW 20:25:12 23° SW 20:25:12 23° SW visible
24 Mar -2.9 19:32:55 10° SW 19:35:53 31° SSE 19:36:40 27° SE visible
24 Mar -1.0 21:08:53 10° WSW 21:09:25 14° WSW 21:09:25 14° WSW visible
25 Mar -2.3 18:42:20 10° SSW 18:44:58 22° SSE 18:47:38 10° E visible
25 Mar -3.5 20:17:54 10° WSW 20:20:43 52° SSW 20:20:43 52° SSW visible
26 Mar -3.4 19:26:56 10° WSW 19:30:07 47° SSE 19:31:54 22° E visible
26 Mar -1.7 21:03:14 10° W 21:04:39 23° W 21:04:39 23° W visible
27 Mar -3.9 20:12:10 10° W 20:15:28 68° S 20:15:43 64° SE visible
28 Mar -3.7 19:21:07 10° WSW 19:24:24 62° S 19:26:44 18° E visible
28 Mar -2.2 20:57:34 10° W 20:59:28 30° WSW 20:59:28 30° WSW visible
29 Mar -3.8 20:06:27 10° W 20:09:45 67° S 20:10:24 50° SE visible
29 Mar -0.6 21:43:03 10° W 21:43:08 10° W 21:43:08 10° W visible
30 Mar -3.8 19:15:22 10° W 19:18:39 69° S 19:21:19 15° E visible
30 Mar -2.4 20:51:53 10° W 20:54:03 32° WSW 20:54:03 32° WSW visible
